STARLINK-5165, 54081

Orbit data source: Space-Track

STARLINK-5165, 54081 is a payload satellite owned by SpaceX/Seattle (US) in LEO that was launched on Thu, 20 Oct 2022 UTC via an FALCON 9 launch vehicle from the Air Force Eastern Test Range (AFETR). Payload-class satellites include a variety of spacecraft equipped with specific instruments for various scientific and technological missions. These include communications satellites like Starlink; space stations such as the ISS; scientific satellites like the Hubble; Earth observation satellites from companies like Planet Labs, Umbra, and HawkEye 360; GPS; miniature CubeSats for education and research; and military/defense satellites.

Loading next visibility...
Identifier
54081, 2022-136AG
Orbit
LEO
Last TLE update
15 hours ago
Origin
Manufacturer
SpaceX/Seattle
Mission
Operational Commercial Communications
Bus & Motor
STARLINK, Unknown motor
Mass
305 kg wet, ~290 kg dry
Launch date (UTC)
2022-10-20 (3 years ago)
Launch vehicle
FALCON 9
Launch site
Air Force Eastern Test Range (AFETR)
Object type
Payload
Rocket body
Debris
Shape & HBR
Box + 1 Pan, 8.86 m
Radar Cross Section
13.562 m², Large (>1 m²)

Expand to show TLE details & history

TLE from 15 hours ago
0 STARLINK-5165
1 54081U 22136AG  25181.83727130  .00001374  00000-0  10441-3 0  9998
2 54081  53.2186  24.6824 0001558  88.0749 272.0422 15.08832944148967
Epoch: 2025-06-30T20:05Z
TLE epoch observation values (Epoch: 2025-06-30T20:05:40.24Z)
Latitude
0.00002°
Longitude
164.1234°
Altitude
540.624 km
Speed
7.593 km/s
True Right ascension
01h 38m 43s
True Declination
0° 00' 00"
Sunlit
Object was in daylight at epoch
Visualization orbit readout
Latitude
40.88571°
Longitude
-158.52974°
Altitude
542.668 km
Speed
7.597 km/s
Apparent Right ascension
07h 04m 35s
Apparent Declination
3° 33' 28"
Sunlit
Object is in daylight
Visualization observer readout
Local Sidereal Time
22:17:03
Azimuth
57.405° ENE
Elevation
-28.114°
Doppler factor
1
Orbital elements
Apogee altitude
541.088 km
Perigee altitude
538.932 km
Semi-major axis
6,918.147 km
Eccentricity
0.00016
Inclination
53.2186°
RAAN
24.6824°
Arg. of periapsis
88.0749°
True anomaly
Unknown
Mean anomaly
272.0422°
Eccentric anomaly
Unknown
Mean motion
3.77189 °/min
Orbital period
95.44 mins
BSTAR
0.00010441
Loading maneuver chart data...
Loading SW <> Apogee altitude chart data...
Loading historical data...
Loading historical data...
Loading historical data...
Loading historical data...
Loading historical data...
Loading historical data...
Loading historical data...

STARLINK-5165 Visibility forecast

Observer location: undefined°, undefined°

Span
Click to sort rows by Start time (UTC) header in descending order
Start Az.
Max El. time (UTC)
Max El. Az.
Max El.
End time (UTC)
End Az.
6 mins2025-07-01 15:19:34.878Z183.418° SSW2025-07-01 15:22:34.878Z123.091° SE24.949°2025-07-01 15:25:34.878Z72.604° E
5 mins2025-07-01 16:59:34.878Z270.873° WNW2025-07-01 17:01:34.878Z329.466° NNW33.529°2025-07-01 17:04:34.878Z34.241° NE
5 mins2025-07-01 22:00:34.878Z337.754° N2025-07-01 22:02:34.878Z21.358° NNE27.734°2025-07-01 22:05:34.878Z86.987° E
6 mins2025-07-01 23:39:34.878Z289.353° WNW2025-07-01 23:42:34.878Z212.878° SW32.338°2025-07-01 23:45:34.878Z159.47° S
|